ACA1121 CYXU-CYQB

Flight info

Callsign ACA1121
Flight time 0h 57m
Altitude 39000
Route NUBER DCT SIKBO DCT AGLUK PESAC4
Aircraft A20N/M-SDE2E3FGHIRWXY/LB1

Departure

Time 2026-04-22 02:47
Airport London International Airport (CYXU)

Arrival

Time 2026-04-22 03:45
Airport Quebec Jean Lesage International Airport (CYQB)
Time Latitude Longitude Altitude Speed Heading
2026-04-22 02:19 43.02917 -81.14823 902 ft 0 kts 286°
2026-04-22 02:40 43.02914 -81.14810 901 ft 2 kts 289°
2026-04-22 02:40 43.02904 -81.14768 902 ft 2 kts 296°
2026-04-22 02:40 43.02899 -81.14755 902 ft 2 kts 290°
2026-04-22 02:41 43.02896 -81.14740 902 ft 4 kts 292°
2026-04-22 02:41 43.02894 -81.14733 905 ft 0 kts 307°
2026-04-22 02:42 43.02917 -81.14758 904 ft 12 kts 323°
2026-04-22 02:43 43.02998 -81.14849 900 ft 16 kts 318°
2026-04-22 02:43 43.03052 -81.14914 901 ft 13 kts 319°
2026-04-22 02:43 43.03150 -81.15032 902 ft 23 kts 319°
2026-04-22 02:43 43.03264 -81.15169 906 ft 20 kts 319°
2026-04-22 02:44 43.03378 -81.15305 907 ft 23 kts 318°
2026-04-22 02:44 43.03468 -81.15411 906 ft 14 kts 319°
2026-04-22 02:44 43.03540 -81.15497 904 ft 14 kts 317°
2026-04-22 02:44 43.03629 -81.15609 904 ft 18 kts 319°
2026-04-22 02:45 43.03724 -81.15720 903 ft 21 kts 320°
2026-04-22 02:45 43.03832 -81.15847 905 ft 14 kts 319°
2026-04-22 02:45 43.03905 -81.15936 906 ft 11 kts 319°
2026-04-22 02:45 43.03972 -81.16007 908 ft 12 kts 336°
2026-04-22 02:46 43.04003 -81.16016 909 ft 0 kts 357°
2026-04-22 02:46 43.04043 -81.16015 911 ft 12 kts
2026-04-22 02:46 43.04119 -81.15974 914 ft 13 kts 44°
2026-04-22 02:46 43.04123 -81.15880 911 ft 0 kts 131°
2026-04-22 02:47 43.03934 -81.15644 906 ft 83 kts 139°
2026-04-22 02:47 43.03270 -81.14849 996 ft 165 kts 138°
2026-04-22 02:47 43.02341 -81.13744 1960 ft 180 kts 144°
2026-04-22 02:48 43.01353 -81.12566 2674 ft 206 kts 145°
2026-04-22 02:48 43.00165 -81.11137 3206 ft 245 kts 141°
2026-04-22 02:48 42.98876 -81.09449 4074 ft 269 kts 139°
2026-04-22 02:48 42.97455 -81.07584 4713 ft 301 kts 136°
2026-04-22 02:49 42.96219 -81.05180 5627 ft 313 kts 111°
2026-04-22 02:49 42.95867 -81.02366 7243 ft 295 kts 84°
2026-04-22 02:49 42.96363 -80.99670 8452 ft 296 kts 59°
2026-04-22 02:49 42.97613 -80.97452 9501 ft 297 kts 39°
2026-04-22 02:50 42.99191 -80.95646 10473 ft 305 kts 33°
2026-04-22 02:50 43.00930 -80.93807 10967 ft 328 kts 34°
2026-04-22 02:50 43.02766 -80.91773 11396 ft 350 kts 36°
2026-04-22 02:50 43.04623 -80.89575 12258 ft 356 kts 37°
2026-04-22 02:51 43.06476 -80.87297 13168 ft 361 kts 38°
2026-04-22 02:51 43.08333 -80.84979 14114 ft 363 kts 38°
2026-04-22 02:51 43.10209 -80.82626 14863 ft 369 kts 38°
2026-04-22 02:51 43.12106 -80.80243 15669 ft 373 kts 38°
2026-04-22 02:52 43.14026 -80.77833 16434 ft 377 kts 37°
2026-04-22 02:52 43.15978 -80.75383 17198 ft 382 kts 37°
2026-04-22 02:52 43.17951 -80.72905 17969 ft 387 kts 37°
2026-04-22 02:52 43.19945 -80.70400 18657 ft 392 kts 37°
2026-04-22 02:53 43.21965 -80.67861 19316 ft 396 kts 37°
2026-04-22 02:53 43.24003 -80.65298 19969 ft 400 kts 37°
2026-04-22 02:53 43.26032 -80.62743 20665 ft 403 kts 37°
2026-04-22 02:53 43.28107 -80.60129 21325 ft 407 kts 37°
2026-04-22 02:54 43.30201 -80.57489 21945 ft 411 kts 37°
2026-04-22 02:54 43.32320 -80.54814 22593 ft 415 kts 37°
2026-04-22 02:54 43.34457 -80.52114 23181 ft 421 kts 37°
2026-04-22 02:54 43.36621 -80.49377 23747 ft 425 kts 37°
2026-04-22 02:55 43.38802 -80.46616 24314 ft 427 kts 37°
2026-04-22 02:55 43.40990 -80.43841 24869 ft 430 kts 37°
2026-04-22 02:55 43.43182 -80.41022 25406 ft 435 kts 40°
2026-04-22 02:55 43.45082 -80.37732 25979 ft 445 kts 52°
2026-04-22 02:56 43.46484 -80.33887 26452 ft 456 kts 65°
2026-04-22 02:56 43.47379 -80.29655 26926 ft 463 kts 71°
2026-04-22 02:56 43.48204 -80.25359 27391 ft 466 kts 71°
2026-04-22 02:56 43.49027 -80.21088 27866 ft 469 kts 71°
2026-04-22 02:57 43.49866 -80.16740 28305 ft 472 kts 71°
2026-04-22 02:57 43.50714 -80.12350 28675 ft 477 kts 71°
2026-04-22 02:57 43.51568 -80.07924 29114 ft 479 kts 71°
2026-04-22 02:57 43.52423 -80.03474 29526 ft 482 kts 71°
2026-04-22 02:58 43.53282 -79.99000 29932 ft 485 kts 71°
2026-04-22 02:58 43.54144 -79.94500 30298 ft 487 kts 71°
2026-04-22 02:58 43.55007 -79.89981 30669 ft 489 kts 71°
2026-04-22 02:58 43.55874 -79.85430 31030 ft 491 kts 71°
2026-04-22 02:59 43.56741 -79.80870 31441 ft 492 kts 71°
2026-04-22 02:59 43.57606 -79.76303 31904 ft 492 kts 71°
2026-04-22 02:59 43.58468 -79.71746 32355 ft 491 kts 71°
2026-04-22 02:59 43.59315 -79.67252 32830 ft 490 kts 71°
2026-04-22 03:00 43.60169 -79.62715 33277 ft 488 kts 71°
2026-04-22 03:00 43.61020 -79.58181 33737 ft 487 kts 71°
2026-04-22 03:00 43.61868 -79.53658 34164 ft 486 kts 70°
2026-04-22 03:00 43.62713 -79.49143 34483 ft 486 kts 71°
2026-04-22 03:01 43.63556 -79.44627 34815 ft 486 kts 71°
2026-04-22 03:01 43.64405 -79.40121 35137 ft 485 kts 69°
2026-04-22 03:01 43.65516 -79.35743 35433 ft 479 kts 61°
2026-04-22 03:01 43.66977 -79.31635 35720 ft 474 kts 54°
2026-04-22 03:02 43.68722 -79.27806 36002 ft 471 kts 50°
2026-04-22 03:02 43.70515 -79.24020 36269 ft 472 kts 51°
2026-04-22 03:02 43.72304 -79.20218 36562 ft 472 kts 51°
2026-04-22 03:02 43.74091 -79.16418 36841 ft 471 kts 51°
2026-04-22 03:03 43.75853 -79.12670 37114 ft 471 kts 51°
2026-04-22 03:03 43.77641 -79.08867 37386 ft 471 kts 51°
2026-04-22 03:03 43.79431 -79.05059 37642 ft 472 kts 51°
2026-04-22 03:03 43.81221 -79.01247 37849 ft 473 kts 51°
2026-04-22 03:04 43.83009 -78.97431 38090 ft 473 kts 51°
2026-04-22 03:04 43.84796 -78.93609 38331 ft 473 kts 51°
2026-04-22 03:04 43.86581 -78.89785 38565 ft 473 kts 51°
2026-04-22 03:04 43.88366 -78.85955 38791 ft 472 kts 51°
2026-04-22 03:05 43.90145 -78.82131 38993 ft 471 kts 51°
2026-04-22 03:05 43.93689 -78.74503 38965 ft 471 kts 51°
2026-04-22 03:05 43.95459 -78.70687 38734 ft 470 kts 51°
2026-04-22 03:06 43.97225 -78.66871 38469 ft 469 kts 51°
2026-04-22 03:06 43.98969 -78.63100 38209 ft 471 kts 51°
2026-04-22 03:06 44.00739 -78.59269 37930 ft 471 kts 51°
2026-04-22 03:06 44.02504 -78.55444 37654 ft 470 kts 51°
2026-04-22 03:07 44.04267 -78.51614 37406 ft 470 kts 51°
2026-04-22 03:07 44.06029 -78.47782 37136 ft 470 kts 51°
2026-04-22 03:07 44.07790 -78.43952 36867 ft 470 kts 51°
2026-04-22 03:07 44.09543 -78.40117 36607 ft 470 kts 52°
2026-04-22 03:08 44.11268 -78.36326 36362 ft 470 kts 52°
2026-04-22 03:08 44.13014 -78.32489 36103 ft 470 kts 52°
2026-04-22 03:08 44.14766 -78.28646 35841 ft 470 kts 52°
2026-04-22 03:08 44.16515 -78.24812 35594 ft 470 kts 52°
2026-04-22 03:09 44.18267 -78.20972 35345 ft 470 kts 52°
2026-04-22 03:09 44.20016 -78.17133 35100 ft 470 kts 52°
2026-04-22 03:09 44.21770 -78.13280 34856 ft 470 kts 52°
2026-04-22 03:09 44.23518 -78.09431 34624 ft 470 kts 52°
2026-04-22 03:10 44.25262 -78.05587 34383 ft 470 kts 52°
2026-04-22 03:10 44.27009 -78.01734 34143 ft 470 kts 52°
2026-04-22 03:10 44.28752 -77.97881 33883 ft 470 kts 52°
2026-04-22 03:10 44.30496 -77.94022 33623 ft 470 kts 52°
2026-04-22 03:11 44.32242 -77.90153 33358 ft 471 kts 52°
2026-04-22 03:11 44.33988 -77.86278 33081 ft 472 kts 52°
2026-04-22 03:11 44.35736 -77.82397 32861 ft 472 kts 52°
2026-04-22 03:11 44.37461 -77.78557 32593 ft 472 kts 52°
2026-04-22 03:12 44.39206 -77.74669 32331 ft 472 kts 52°
2026-04-22 03:12 44.42695 -77.66878 31815 ft 473 kts 52°
2026-04-22 03:12 44.44442 -77.62969 31554 ft 474 kts 52°
2026-04-22 03:13 44.46188 -77.59058 31312 ft 474 kts 52°
2026-04-22 03:13 44.47932 -77.55145 31076 ft 474 kts 52°
2026-04-22 03:13 44.49678 -77.51220 30832 ft 475 kts 52°
2026-04-22 03:13 44.51421 -77.47296 30613 ft 472 kts 52°
2026-04-22 03:14 44.53144 -77.43408 30372 ft 468 kts 52°
2026-04-22 03:14 44.54855 -77.39545 30134 ft 466 kts 52°
2026-04-22 03:14 44.56563 -77.35686 29849 ft 465 kts 52°
2026-04-22 03:14 44.58264 -77.31838 29565 ft 463 kts 52°
2026-04-22 03:15 44.59953 -77.28009 29280 ft 461 kts 52°
2026-04-22 03:15 44.61610 -77.24250 29004 ft 459 kts 52°
2026-04-22 03:15 44.63284 -77.20449 28729 ft 457 kts 52°
2026-04-22 03:15 44.64950 -77.16658 28460 ft 455 kts 52°
2026-04-22 03:16 44.66608 -77.12881 28207 ft 453 kts 52°
2026-04-22 03:16 44.68258 -77.09119 27941 ft 451 kts 52°
2026-04-22 03:16 44.69900 -77.05367 27673 ft 450 kts 52°
2026-04-22 03:16 44.71533 -77.01631 27431 ft 448 kts 52°
2026-04-22 03:17 44.73164 -76.97897 27174 ft 447 kts 52°
2026-04-22 03:17 44.74791 -76.94168 26913 ft 446 kts 52°
2026-04-22 03:17 44.76407 -76.90458 26657 ft 444 kts 52°
2026-04-22 03:17 44.78013 -76.86764 26403 ft 442 kts 52°
2026-04-22 03:18 44.79616 -76.83075 26146 ft 441 kts 52°
2026-04-22 03:18 44.81210 -76.79401 25920 ft 439 kts 51°
2026-04-22 03:18 44.82802 -76.75728 25683 ft 439 kts 51°
2026-04-22 03:18 44.84367 -76.72111 25437 ft 438 kts 51°
2026-04-22 03:19 44.85947 -76.68454 25192 ft 436 kts 51°
2026-04-22 03:19 44.87517 -76.64816 24957 ft 434 kts 51°
2026-04-22 03:19 44.89084 -76.61181 24715 ft 433 kts 51°
2026-04-22 03:19 44.90642 -76.57563 24480 ft 431 kts 51°
2026-04-22 03:20 44.92197 -76.53946 24255 ft 430 kts 51°
2026-04-22 03:20 44.93748 -76.50334 24022 ft 430 kts 51°
2026-04-22 03:20 44.95295 -76.46726 23790 ft 429 kts 51°
2026-04-22 03:20 44.96835 -76.43130 23556 ft 427 kts 51°
2026-04-22 03:21 44.98370 -76.39539 23277 ft 426 kts 51°
2026-04-22 03:21 44.99896 -76.35968 23001 ft 424 kts 51°
2026-04-22 03:21 45.01413 -76.32414 22718 ft 422 kts 51°
2026-04-22 03:21 45.02904 -76.28915 22461 ft 420 kts 51°
2026-04-22 03:22 45.04405 -76.25389 22199 ft 418 kts 51°
2026-04-22 03:22 45.05901 -76.21871 21925 ft 416 kts 51°
2026-04-22 03:22 45.07390 -76.18366 21660 ft 417 kts 52°
2026-04-22 03:22 45.10935 -76.09999 21044 ft 409 kts 52°
2026-04-22 03:23 45.16762 -75.96196 20087 ft 405 kts 52°
2026-04-22 03:23 45.22487 -75.82566 19092 ft 399 kts 52°
2026-04-22 03:23 45.28109 -75.69117 18121 ft 394 kts 52°
2026-04-22 03:23 45.33642 -75.55821 17031 ft 387 kts 53°
2026-04-22 03:24 45.39080 -75.42688 16022 ft 382 kts 53°
2026-04-22 03:24 45.44406 -75.29764 15022 ft 376 kts 54°
2026-04-22 03:24 45.49627 -75.17034 14053 ft 370 kts 54°
2026-04-22 03:24 45.54694 -75.04623 12991 ft 363 kts 55°
2026-04-22 03:25 45.59721 -74.92264 11968 ft 358 kts 56°
2026-04-22 03:25 45.64662 -74.80054 10948 ft 351 kts 56°
2026-04-22 03:25 45.69345 -74.68410 10310 ft 315 kts 56°
2026-04-22 03:25 45.73552 -74.57935 10173 ft 302 kts 56°
2026-04-22 03:26 45.77715 -74.47521 10174 ft 300 kts 56°
2026-04-22 03:26 45.85145 -74.28950 10125 ft 300 kts 58°
2026-04-22 03:26 45.93031 -74.09056 10201 ft 306 kts 55°
2026-04-22 03:26 45.97077 -73.98529 10186 ft 300 kts 57°
2026-04-22 03:27 46.01146 -73.88131 10184 ft 299 kts 57°
2026-04-22 03:27 46.06263 -73.75082 10188 ft 298 kts 57°
2026-04-22 03:27 46.10245 -73.64795 10189 ft 298 kts 57°
2026-04-22 03:27 46.14285 -73.54348 10190 ft 298 kts 57°
2026-04-22 03:28 46.18322 -73.43883 10195 ft 298 kts 58°
2026-04-22 03:28 46.22023 -73.33186 10190 ft 300 kts 65°
2026-04-22 03:28 46.23294 -73.28823 10002 ft 298 kts 64°
2026-04-22 03:28 46.24364 -73.25190 9823 ft 297 kts 64°
2026-04-22 03:29 46.25169 -73.22439 9681 ft 297 kts 64°
2026-04-22 03:29 46.25970 -73.19683 9544 ft 297 kts 65°
2026-04-22 03:29 46.26766 -73.16931 9411 ft 297 kts 65°
2026-04-22 03:29 46.27560 -73.14184 9264 ft 297 kts 65°
2026-04-22 03:30 46.28353 -73.11433 9135 ft 296 kts 65°
2026-04-22 03:30 46.29144 -73.08686 8993 ft 296 kts 65°
2026-04-22 03:30 46.29936 -73.05936 8862 ft 296 kts 65°
2026-04-22 03:30 46.30712 -73.03232 8740 ft 295 kts 65°
2026-04-22 03:31 46.31500 -73.00489 8597 ft 295 kts 65°
2026-04-22 03:31 46.32283 -72.97757 8480 ft 294 kts 65°
2026-04-22 03:31 46.33067 -72.95020 8344 ft 294 kts 65°
2026-04-22 03:31 46.33848 -72.92297 8202 ft 293 kts 66°
2026-04-22 03:32 46.34626 -72.89577 8078 ft 292 kts 66°
2026-04-22 03:32 46.35402 -72.86860 7942 ft 292 kts 66°
2026-04-22 03:32 46.36176 -72.84146 7812 ft 292 kts 66°
2026-04-22 03:32 46.36957 -72.81438 7682 ft 291 kts 66°
2026-04-22 03:33 46.37741 -72.78736 7552 ft 291 kts 66°
2026-04-22 03:33 46.38526 -72.76034 7424 ft 291 kts 66°
2026-04-22 03:33 46.39297 -72.73371 7298 ft 290 kts 66°
2026-04-22 03:33 46.40085 -72.70641 7168 ft 290 kts 66°
2026-04-22 03:34 46.40851 -72.67986 7041 ft 289 kts 67°
2026-04-22 03:34 46.41627 -72.65291 6920 ft 289 kts 67°
2026-04-22 03:34 46.42399 -72.62608 6790 ft 289 kts 67°
2026-04-22 03:34 46.43171 -72.59919 6669 ft 288 kts 67°
2026-04-22 03:35 46.43941 -72.57234 6536 ft 288 kts 67°
2026-04-22 03:35 46.44710 -72.54555 6394 ft 287 kts 68°
2026-04-22 03:35 46.45476 -72.51884 6269 ft 287 kts 68°
2026-04-22 03:35 46.46238 -72.49222 6145 ft 286 kts 68°
2026-04-22 03:36 46.46998 -72.46563 5998 ft 284 kts 68°
2026-04-22 03:36 46.47754 -72.43915 5876 ft 284 kts 69°
2026-04-22 03:36 46.48505 -72.41283 5732 ft 280 kts 69°
2026-04-22 03:36 46.49247 -72.38679 5595 ft 279 kts 69°
2026-04-22 03:37 46.50529 -72.34166 5374 ft 278 kts 69°
2026-04-22 03:37 46.53417 -72.23979 4858 ft 275 kts 70°
2026-04-22 03:37 46.56311 -72.13716 4323 ft 273 kts 70°
2026-04-22 03:37 46.59173 -72.03519 3787 ft 269 kts 70°
2026-04-22 03:38 46.60973 -71.93138 2958 ft 257 kts 82°
2026-04-22 03:38 46.62180 -71.84003 2966 ft 216 kts 81°
2026-04-22 03:38 46.62916 -71.78356 2968 ft 214 kts 81°
2026-04-22 03:38 46.64025 -71.69850 2985 ft 214 kts 82°
2026-04-22 03:39 46.66238 -71.62212 2991 ft 217 kts 19°
2026-04-22 03:39 46.71517 -71.64772 2991 ft 216 kts
2026-04-22 03:39 46.73637 -71.60413 2993 ft 204 kts 108°
2026-04-22 03:39 46.72910 -71.58710 2989 ft 199 kts 144°
2026-04-22 03:40 46.71662 -71.57960 2997 ft 192 kts 173°
2026-04-22 03:40 46.70391 -71.57796 3023 ft 172 kts 180°
2026-04-22 03:40 46.69269 -71.57756 2986 ft 148 kts 180°
2026-04-22 03:40 46.68396 -71.57210 2868 ft 137 kts 135°
2026-04-22 03:41 46.68161 -71.55911 2687 ft 137 kts 85°
2026-04-22 03:41 46.68522 -71.54634 2481 ft 137 kts 58°
2026-04-22 03:41 46.69117 -71.53579 2257 ft 136 kts 47°
2026-04-22 03:41 46.69768 -71.52659 2023 ft 135 kts 44°
2026-04-22 03:42 46.70459 -71.51730 1781 ft 135 kts 44°
2026-04-22 03:42 46.71124 -71.50827 1557 ft 128 kts 45°
2026-04-22 03:42 46.71766 -71.49932 1509 ft 127 kts 46°
2026-04-22 03:42 46.72432 -71.48985 1533 ft 139 kts 46°
2026-04-22 03:43 46.73123 -71.47996 1533 ft 139 kts 46°
2026-04-22 03:43 46.73818 -71.47000 1471 ft 141 kts 46°
2026-04-22 03:43 46.74507 -71.46008 1282 ft 138 kts 46°
2026-04-22 03:43 46.75185 -71.45028 1099 ft 137 kts 45°
2026-04-22 03:44 46.75860 -71.44053 937 ft 135 kts 44°
2026-04-22 03:44 46.76516 -71.43074 838 ft 133 kts 47°
2026-04-22 03:44 46.77158 -71.42161 696 ft 125 kts 39°
2026-04-22 03:44 46.77784 -71.41326 403 ft 125 kts 44°
2026-04-22 03:45 46.78413 -71.40386 266 ft 132 kts 44°
2026-04-22 03:45 46.78884 -71.39702 249 ft 39 kts 44°
2026-04-22 03:45 46.78930 -71.39636 247 ft 12 kts 44°
2026-04-22 03:45 46.79032 -71.39489 246 ft 24 kts 44°
2026-04-22 03:46 46.79163 -71.39304 243 ft 28 kts 44°
2026-04-22 03:46 46.79276 -71.39135 244 ft 20 kts 46°
2026-04-22 03:46 46.79353 -71.39017 244 ft 10 kts 44°
2026-04-22 03:46 46.79412 -71.38933 245 ft 15 kts 44°
2026-04-22 03:47 46.79490 -71.38791 244 ft 20 kts 72°
2026-04-22 03:47 46.79484 -71.38709 243 ft 1 kts 105°
2026-04-22 03:47 46.79469 -71.38630 242 ft 13 kts 105°
2026-04-22 03:47 46.79450 -71.38572 241 ft 8 kts 137°
2026-04-22 03:48 46.79402 -71.38499 241 ft 11 kts 122°
2026-04-22 03:48 46.79389 -71.38421 241 ft 9 kts 146°
2026-04-22 03:48 46.79354 -71.38394 241 ft 0 kts 154°